Location: Ocean City
(38.3360°N, 75.0850°W)
Time: 01:56:20
(UTC-05:00)

A-11 Canister half - Visible Passes

Search period start: 22 November 2019 00:00
Search period end: 02 December 2019 00:00
Orbit: 1527 x 1682 km, 47.3° (Epoch: 21 November)

Date Brightness Start Highest point End Pass type
(mag) Time Alt. Az. Time Alt. Az. Time Alt. Az.
22 Nov 10.6 18:46:29 10° WNW 18:54:10 29° SW 19:01:43 10° S visible
23 Nov 10.6 18:24:42 10° WNW 18:32:36 30° SW 18:40:21 10° S visible
24 Nov 10.6 18:02:56 10° WNW 18:11:02 32° SW 18:18:59 10° S visible
25 Nov 10.6 17:41:10 10° WNW 17:49:29 34° SW 17:57:36 10° S visible
26 Nov 10.6 17:19:25 10° WNW 17:27:54 36° SW 17:36:11 10° SSE visible
27 Nov 10.6 16:57:40 10° WNW 17:06:20 39° SW 17:14:45 10° SSE visible
28 Nov 11.9 06:13:24 10° SSE 06:18:34 15° ESE 06:23:42 10° E visible
29 Nov 11.9 05:52:25 10° SSE 05:57:00 14° ESE 06:01:33 10° E visible
30 Nov 11.9 05:31:34 10° SE 05:35:26 13° ESE 05:39:16 10° E visible
01 Dec 11.9 05:10:58 10° SE 05:13:52 11° ESE 05:16:46 10° ESE visible
